TimeMDT,TemperatureF,Dew PointF,Humidity,Sea Level PressureIn,VisibilityMPH,Wind Direction,Wind SpeedMPH,Gust SpeedMPH,PrecipitationIn,Events,Conditions,WindDirDegrees,DateUTC
12:15 AM,39.2,30.2,70,30.08,10.0,NNW,12.7,-,N/A,,Clear,330,2013-10-20 06:15:00
12:35 AM,39.2,30.2,70,30.07,10.0,NW,8.1,-,N/A,,Clear,320,2013-10-20 06:35:00
12:55 AM,37.4,28.4,70,30.07,10.0,NW,11.5,-,N/A,,Clear,310,2013-10-20 06:55:00
1:15 AM,39.2,28.4,65,30.07,10.0,NW,10.4,-,N/A,,Clear,320,2013-10-20 07:15:00
1:35 AM,37.4,28.4,70,30.07,10.0,NW,9.2,-,N/A,,Clear,310,2013-10-20 07:35:00
1:55 AM,37.4,28.4,70,30.07,10.0,NW,10.4,-,N/A,,Clear,310,2013-10-20 07:55:00
2:15 AM,37.4,28.4,70,30.07,10.0,NW,12.7,-,N/A,,Clear,320,2013-10-20 08:15:00
2:35 AM,35.6,26.6,70,30.07,10.0,NNW,11.5,-,N/A,,Clear,330,2013-10-20 08:35:00
2:55 AM,37.4,26.6,65,30.08,10.0,NW,10.4,-,N/A,,Clear,320,2013-10-20 08:55:00
3:15 AM,37.4,26.6,65,30.07,10.0,NW,11.5,-,N/A,,Clear,310,2013-10-20 09:15:00
3:35 AM,35.6,26.6,70,30.07,10.0,NW,10.4,-,N/A,,Clear,320,2013-10-20 09:35:00
3:55 AM,35.6,26.6,70,30.06,10.0,NW,11.5,-,N/A,,Clear,310,2013-10-20 09:55:00
4:15 AM,35.6,26.6,70,30.06,10.0,NW,10.4,-,N/A,,Clear,320,2013-10-20 10:15:00
4:35 AM,35.6,26.6,70,30.06,10.0,NW,9.2,-,N/A,,Clear,310,2013-10-20 10:35:00
4:55 AM,35.6,24.8,65,30.06,10.0,NW,11.5,-,N/A,,Clear,310,2013-10-20 10:55:00
5:15 AM,35.6,24.8,65,30.06,10.0,NW,11.5,-,N/A,,Clear,310,2013-10-20 11:15:00
5:35 AM,35.6,24.8,65,30.06,10.0,NW,10.4,-,N/A,,Clear,320,2013-10-20 11:35:00
5:55 AM,37.4,24.8,60,30.06,10.0,NW,11.5,-,N/A,,Clear,310,2013-10-20 11:55:00
6:15 AM,37.4,24.8,60,30.06,10.0,NW,10.4,-,N/A,,Clear,310,2013-10-20 12:15:00
6:35 AM,37.4,24.8,60,30.07,10.0,NW,10.4,-,N/A,,Clear,310,2013-10-20 12:35:00
6:50 AM,39.2,24.8,56,30.07,10.0,WNW,10.4,-,N/A,,Scattered Clouds,290,2013-10-20 12:50:00
6:55 AM,37.4,24.8,60,30.07,10.0,NW,8.1,-,N/A,,Clear,310,2013-10-20 12:55:00
7:55 AM,37.4,24.8,60,30.09,10.0,West,5.8,-,N/A,,Scattered Clouds,280,2013-10-20 13:55:00
8:47 AM,35.6,24.8,65,30.11,10.0,Calm,Calm,-,N/A,,Scattered Clouds,0,2013-10-20 14:47:00
9:47 AM,39.2,24.8,56,30.13,10.0,Calm,Calm,-,N/A,,Scattered Clouds,0,2013-10-20 15:47:00
10:47 AM,46.4,26.6,46,30.13,10.0,Calm,Calm,-,N/A,,Scattered Clouds,0,2013-10-20 16:47:00
11:47 AM,53.6,26.6,35,30.13,10.0,ESE,11.5,-,N/A,,Scattered Clouds,110,2013-10-20 17:47:00
12:47 PM,53.6,26.6,35,30.12,10.0,ESE,13.8,-,N/A,,Scattered Clouds,120,2013-10-20 18:47:00
1:47 PM,55.4,28.4,36,30.10,10.0,ESE,11.5,-,N/A,,Mostly Cloudy,120,2013-10-20 19:47:00
2:47 PM,57.2,26.6,31,30.09,10.0,Calm,Calm,-,N/A,,Scattered Clouds,0,2013-10-20 20:47:00
3:47 PM,59.0,26.6,29,30.08,10.0,SE,11.5,-,N/A,,Scattered Clouds,130,2013-10-20 21:47:00
4:47 PM,57.2,26.6,31,30.09,10.0,SE,11.5,-,N/A,,Partly Cloudy,130,2013-10-20 22:47:00
5:47 PM,55.4,26.6,33,30.09,10.0,SE,11.5,-,N/A,,Partly Cloudy,130,2013-10-20 23:47:00
6:47 PM,48.2,30.2,50,30.10,10.0,SSE,5.8,-,N/A,,Partly Cloudy,150,2013-10-21 00:47:00
7:47 PM,46.4,28.4,50,30.11,10.0,Calm,Calm,-,N/A,,Partly Cloudy,0,2013-10-21 01:47:00
8:47 PM,44.6,28.4,53,30.12,10.0,WNW,9.2,-,N/A,,Partly Cloudy,300,2013-10-21 02:47:00
9:47 PM,42.8,28.4,57,30.13,10.0,WNW,8.1,-,N/A,,Clear,300,2013-10-21 03:47:00
10:50 PM,41.0,28.4,61,30.16,10.0,WNW,4.6,-,N/A,,Clear,300,2013-10-21 04:50:00
11:15 PM,41.0,28.4,61,30.16,10.0,WNW,9.2,-,N/A,,Clear,300,2013-10-21 05:15:00
11:35 PM,41.0,28.4,61,30.16,10.0,NW,11.5,-,N/A,,Clear,310,2013-10-21 05:35:00
11:55 PM,41.0,28.4,61,30.16,10.0,North,6.9,-,N/A,,Clear,350,2013-10-21 05:55:00